GFSFLT2_850_thetae_081.txt.gz
Theta_e
313 313 311 311 311 311 311 312 311 311 310 310 309 308 306 304 303 304 305 304 307 308 309 312 315 309 310
309 308 309 310 311 311 311 310 310 309 309 309 307 307 305 303 302 302 303 303 306 307 309 311 315 312 307
309 308 308 308 309 309 309 309 308 307 307 306 305 303 301 301 301 300 301 303 303 306 309 310 315 316 317
307 306 306 307 307 307 307 307 306 305 305 304 303 302 300 300 300 299 298 299 302 304 306 309 311 312 315
305 305 305 305 305 305 305 304 304 303 303 302 301 300 299 299 298 296 293 295 298 301 304 306 308 309 310
304 304 304 303 303 303 303 302 302 302 301 300 299 299 298 297 292 290 290 290 291 296 300 303 305 305 306
303 303 303 303 302 302 302 301 300 300 299 296 297 296 295 290 289 289 289 289 289 290 293 298 301 303 304
302 302 301 301 301 300 299 298 298 297 296 292 290 289 289 288 288 289 288 288 289 289 289 290 291 293 296
301 300 299 299 299 298 297 296 296 296 294 292 290 288 288 288 288 289 289 289 290 290 290 289 289 289 289
298 292 290 294 295 295 295 295 295 292 291 289 288 288 288 288 288 289 290 290 290 290 290 290 290 291 291
291 289 289 289 291 292 293 293 292 290 287 288 288 288 288 290 289 289 289 290 290 290 290 290 290 290 291
289 289 289 289 288 289 289 289 288 288 287 287 287 288 288 289 290 290 290 290 290 290 290 290 290 290 290
288 288 288 288 288 287 287 287 287 287 287 287 288 288 288 288 289 289 289 289 290 290 290 290 290 290 290
288 288 288 288 288 287 287 287 287 287 288 288 288 288 288 288 288 289 289 289 289 289 289 289 289 289 289
287 287 288 288 287 287 287 287 288 289 288 288 288 288 288 288 288 288 288 288 288 288 288 288 288 288 288
287 287 287 287 287 287 287 287 288 289 288 288 288 287 287 287 287 287 288 287 287 287 287 288 288 288 288
288 287 287 287 286 287 287 287 288 288 288 288 287 287 287 286 287 287 287 287 286 287 287 287 288 289 289

GFSFLT2_850_thetae_087.txt.gz
Theta_e
312 313 313 313 313 312 309 310 310 309 309 310 311 310 310 309 308 307 307 304 304 304 304 306 306 307 310
310 311 311 309 310 309 309 307 307 308 310 310 310 308 309 308 306 306 304 303 303 303 305 307 311 308 312
308 308 309 308 307 306 307 308 307 307 308 308 308 308 307 306 305 305 303 302 302 302 305 308 310 313 311
307 308 308 307 306 305 305 306 306 306 306 306 306 306 305 304 304 303 301 301 301 300 304 307 308 313 314
306 307 306 305 304 305 304 305 305 305 305 304 304 304 303 303 303 301 300 300 298 298 302 306 308 311 314
305 304 303 303 304 303 303 303 303 303 303 303 303 302 302 301 300 298 298 296 293 293 298 303 307 309 311
304 303 302 303 302 303 303 303 303 302 302 302 301 301 300 298 298 296 292 290 290 290 292 299 304 305 307
303 302 302 301 301 302 301 301 301 301 301 300 299 298 297 294 295 291 289 289 289 289 290 293 298 302 304
302 301 301 301 301 301 301 302 301 300 300 298 297 296 293 290 289 289 288 288 289 288 289 289 290 294 299
302 300 301 301 300 300 300 300 300 298 297 296 296 293 290 289 289 288 288 289 289 289 289 289 289 289 290
300 300 299 299 299 299 297 298 297 296 295 295 294 293 289 288 289 288 289 289 289 290 290 290 290 290 290
298 299 299 299 296 292 293 293 293 293 294 293 289 289 289 288 290 289 289 289 290 290 290 290 290 290 290
298 298 298 294 290 289 290 291 291 293 293 292 289 287 287 288 289 290 290 290 290 290 290 290 290 290 290
298 296 293 289 289 289 289 289 290 290 290 289 288 287 288 288 288 289 290 290 290 290 290 290 290 290 290
296 294 291 289 288 288 288 287 287 288 288 288 287 287 288 288 289 289 289 289 289 289 289 289 289 289 289
295 293 289 288 288 288 288 288 288 287 287 287 287 287 288 288 289 289 289 289 289 289 289 289 289 289 288
294 291 288 288 287 287 287 287 287 286 286 287 288 288 288 289 289 290 289 289 288 288 288 288 288 287 288

GFSFLT2_850_thetae_090.txt.gz
Theta_e
313 313 313 314 314 314 313 312 311 308 309 309 309 309 310 311 310 309 308 306 306 304 304 304 305 304 305
313 312 312 313 312 312 310 309 309 308 307 307 308 309 309 309 309 307 306 306 305 303 303 303 305 308 309
311 311 311 311 309 308 308 307 306 306 307 307 307 308 308 308 308 306 304 304 304 302 302 303 306 309 313
310 310 309 308 307 307 307 306 306 305 306 305 305 306 307 307 306 304 304 304 301 301 301 302 306 310 312
309 309 308 307 306 305 305 304 303 304 304 304 304 305 305 305 304 302 303 302 300 300 299 301 306 310 313
309 308 308 306 305 303 302 303 303 304 303 304 304 304 303 303 302 302 301 299 299 299 296 299 305 307 309
308 307 306 305 303 303 303 303 303 303 303 303 303 303 302 301 301 299 299 298 295 291 291 295 303 305 308
306 306 304 303 303 302 303 302 302 302 302 302 302 301 300 300 299 297 298 292 290 289 290 291 298 302 303
305 304 303 302 301 301 302 301 301 302 302 301 300 299 299 298 292 291 290 289 288 289 289 290 292 297 301
304 303 303 301 301 300 301 302 301 301 301 300 299 298 296 294 291 289 289 289 289 289 288 289 289 290 293
302 302 301 300 300 300 301 300 301 300 300 298 298 297 294 288 290 289 289 288 289 290 289 289 289 289 289
301 299 300 300 300 299 298 298 298 298 297 296 293 295 294 292 289 289 289 289 290 289 290 290 290 290 290
299 299 299 298 298 297 297 297 295 295 295 294 294 288 288 290 289 290 289 290 290 290 290 290 290 290 290
300 299 298 297 296 294 291 291 292 292 292 293 293 291 287 287 288 288 290 290 290 290 290 290 290 290 290
298 298 297 296 296 291 288 289 290 291 291 292 292 290 287 287 288 288 289 290 290 290 290 290 290 290 290
297 297 296 296 295 290 288 288 288 289 289 289 289 288 286 287 288 289 289 289 289 289 289 289 289 289 289
297 297 296 295 294 290 288 287 287 287 287 286 286 287 286 288 289 289 290 289 289 289 289 289 289 289 289

GFSFLT2_850_thetae_093.txt.gz
Theta_e
321 320 318 317 317 316 315 314 314 313 311 310 308 309 310 309 310 309 310 310 309 307 307 307 305 304 304
319 317 315 314 314 314 314 314 312 311 309 308 308 308 308 308 309 310 309 309 307 306 306 304 303 303 305
318 315 313 313 312 312 312 311 310 308 307 305 306 306 306 307 308 308 308 307 306 305 305 303 302 303 308
314 313 312 312 311 311 310 308 307 306 306 305 305 305 305 306 306 307 306 305 304 304 304 302 302 304 309
312 311 311 311 310 309 308 306 306 305 303 303 304 304 303 304 304 305 304 303 303 303 302 301 300 306 309
311 311 310 310 309 308 306 305 304 303 303 303 303 302 302 302 303 304 303 303 303 301 300 299 298 305 309
310 310 309 309 308 307 306 304 303 302 303 303 303 303 302 302 303 303 302 301 300 299 295 294 296 304 309
309 310 308 307 307 306 304 303 303 302 302 301 302 303 302 302 302 301 301 298 298 293 290 290 293 302 306
309 308 309 307 305 303 303 302 302 302 301 300 300 301 301 301 300 300 298 296 293 289 289 290 291 298 303
306 306 306 305 304 303 302 302 301 300 300 300 300 301 299 300 299 298 292 289 288 288 288 289 290 292 299
304 304 304 303 303 302 301 300 300 300 301 301 300 300 299 296 293 295 291 289 288 289 288 288 289 289 291
303 304 304 303 301 300 300 299 300 300 300 300 299 298 297 297 291 290 290 288 288 289 289 289 289 289 289
302 303 303 302 300 299 298 298 298 298 298 298 296 296 294 295 295 291 289 289 288 289 289 290 290 290 290
301 301 301 299 298 298 298 298 297 297 296 295 295 295 292 289 291 289 289 289 289 289 289 290 290 290 290
299 299 299 298 298 298 297 297 296 296 294 293 293 293 294 289 287 288 288 289 290 289 289 289 290 290 290
298 298 298 298 298 297 296 295 292 290 291 292 292 292 293 291 287 287 287 289 289 289 289 289 290 290 290
297 297 297 297 297 296 296 293 289 288 289 291 291 291 292 291 287 287 288 288 289 289 289 289 289 289 289

GFSFLT2_850_thetae_096.txt.gz
Theta_e
322 321 321 320 321 319 317 317 317 315 314 312 312 311 310 309 309 309 309 309 309 310 309 307 307 307 305
322 321 320 320 319 318 317 317 316 315 314 312 311 310 308 307 309 308 308 308 309 309 308 307 306 306 304
322 320 320 319 318 317 316 315 314 313 313 311 310 307 305 307 307 307 308 308 308 307 307 306 305 304 303
320 319 319 316 315 314 313 313 312 312 310 308 306 305 305 305 305 305 307 307 306 306 305 304 304 303 302
317 318 317 314 313 312 312 312 311 309 307 306 305 303 304 304 304 304 304 304 304 305 303 304 302 301 305
317 316 313 312 312 312 311 310 309 307 306 305 303 302 303 303 302 302 302 303 303 303 303 302 301 299 306
316 314 312 312 311 310 310 309 307 306 304 303 302 302 302 302 301 301 302 303 302 302 301 300 298 297 306
313 313 311 311 310 309 308 307 306 305 303 302 302 302 301 301 301 301 302 302 301 300 299 295 293 296 305
310 310 310 309 308 309 308 308 306 303 303 302 301 301 301 301 301 301 301 301 300 297 296 291 291 294 303
308 308 308 308 308 309 309 309 306 302 302 301 301 300 300 301 301 300 299 299 296 293 291 290 290 291 299
305 305 306 306 306 306 306 305 303 302 301 301 300 300 300 298 297 298 299 298 290 289 289 289 290 290 294
303 303 303 304 305 304 304 303 302 301 300 300 300 300 300 299 298 297 293 295 289 289 289 289 289 290 290
302 302 303 303 303 302 301 301 300 300 299 299 299 299 298 297 296 296 289 291 289 289 289 289 289 289 289
301 301 301 302 301 300 300 300 300 299 298 298 298 298 296 295 294 295 295 289 289 289 289 289 290 290 289
299 299 299 300 300 299 299 299 299 299 298 297 297 296 295 294 292 291 292 289 289 289 289 290 290 290 290
297 298 299 299 298 298 298 298 298 297 297 296 295 294 293 292 293 288 289 288 289 289 289 289 289 290 290
295 296 297 297 297 298 297 296 296 296 295 294 294 292 292 292 292 292 287 288 289 289 289 289 289 289 289